Weather History for McMinnville, OR

Change the Weather History Date:

Thursday, February 21, 2013

  Actual Average Record
Temperature  
Mean Temperature 42 °F 43 °F  
Max Temperature 46 °F 52 °F 65 °F (1923)
Min Temperature 37 °F 35 °F 23 °F (1955)
Degree Days  
Heating Degree Days 23 22  
Month to date heating degree days 437 476  
Since 1 July heating degree days 2934 3231  
Cooling Degree Days 0 0  
Month to date cooling degree days 0 0  
Year to date cooling degree days 0 0  
Moisture  
Dew Point 37 °F    
Average Humidity 79    
Maximum Humidity 86    
Minimum Humidity 71    
Precipitation  
Precipitation 0.11 in 0.14 in 1.88 in (1948)
Month to date precipitation 0.59 3.37  
Year to date precipitation 1.58 9.47  
Snow  
Snow 0.00 in - - ()
Month to date snowfall 0.0  
Snow Depth 0.00 in    
Sea Level Pressure  
Sea Level Pressure 30.18 in    
Wind  
Wind Speed 10 mph (SSW)    
Max Wind Speed 20 mph    
Max Gust Speed 24 mph    
Visibility 10 miles    
Events Rain    
T = Trace of Precipitation, MM = Missing Value Source: NWS Daily Summary

Daily Weather History Graph

Daily Weather History Graph

Search for Another Location

Airport:

Trip Planner

Search our weather history database for the weather conditions in past years. The results will help you decide how hot, cold, wet, or windy it might be!

Date:

Astronomy

Feb. 21, 2013 Rise Set
Actual Time 7:03 AM PST 5:49 PM PST
Civil Twilight 6:33 AM PST 6:19 PM PST
Nautical Twilight 5:59 AM PST 6:53 PM PST
Astronomical Twilight 5:25 AM PST 7:27 PM PST
Moon 2:02 PM PST (2/21) 4:19 AM PST (2/21)
Length of Visible Light 11h 45m
Length of Day
10h 45m
Waxing Gibbous, 84% of the Moon is Illuminated
Feb 21
Waxing Gibbous
Feb 25
Full
Mar 4
Last Quarter
Mar 11
New
Mar 19
First Quarter

Hourly Weather History & Observations

Time (PST) Temp. Windchill Dew Point Humidity Pressure Visibility Wind Dir Wind Speed Gust Speed Precip Events Conditions
12:53 AM 41.0 °F 38.0 °F 37.0 °F 86% 30.13 in 10.0 mi SSW 4.6 mph - N/A   Overcast
1:53 AM 41.0 °F 34.7 °F 37.0 °F 86% 30.14 in 10.0 mi SW 10.4 mph - N/A   Overcast
2:53 AM 39.0 °F 33.4 °F 36.0 °F 89% 30.15 in 10.0 mi SSW 8.1 mph - N/A   Mostly Cloudy
3:53 AM 37.9 °F 34.4 °F 34.0 °F 86% 30.16 in 10.0 mi SSW 4.6 mph - N/A   Scattered Clouds
4:53 AM 37.9 °F 32.1 °F 34.0 °F 86% 30.17 in 10.0 mi SSW 8.1 mph - N/A   Clear
6:53 AM 37.9 °F - 34.0 °F 86% 30.19 in 10.0 mi Calm Calm - N/A   Overcast
7:53 AM 39.0 °F 34.0 °F 35.1 °F 86% 30.21 in 10.0 mi SW 6.9 mph - N/A   Overcast
8:53 AM 42.1 °F 36.6 °F 36.0 °F 79% 30.21 in 10.0 mi South 9.2 mph - N/A   Mostly Cloudy
9:53 AM 43.0 °F 36.4 °F 37.0 °F 80% 30.21 in 10.0 mi South 12.7 mph - N/A   Overcast
10:53 AM 45.0 °F 40.1 °F 39.0 °F 80% 30.21 in 10.0 mi SW 9.2 mph - 0.00 in Rain Light Rain
11:53 AM 44.1 °F 37.1 °F 37.0 °F 76% 30.21 in 10.0 mi WSW 15.0 mph 24.2 mph 0.02 in Rain Light Rain
12:10 PM 42.8 °F 36.6 °F 37.4 °F 81% 30.20 in 10.0 mi SW 11.5 mph - 0.00 in   Overcast
12:53 PM 44.1 °F 39.5 °F 37.9 °F 79% 30.19 in 10.0 mi SSW 8.1 mph - 0.00 in   Overcast
1:53 PM 46.0 °F 39.6 °F 37.9 °F 73% 30.17 in 10.0 mi South 15.0 mph - N/A   Mostly Cloudy
2:53 PM 46.0 °F 38.8 °F 37.0 °F 71% 30.16 in 10.0 mi South 18.4 mph - N/A   Overcast
3:53 PM 45.0 °F 39.7 °F 39.0 °F 80% 30.16 in 10.0 mi SSW 10.4 mph - 0.00 in Rain Light Rain
4:07 PM 46.4 °F 41.9 °F 39.2 °F 76% 30.15 in 10.0 mi South 9.2 mph - 0.01 in Rain Light Rain
4:53 PM 44.1 °F 37.4 °F 39.9 °F 85% 30.16 in 10.0 mi SSW 13.8 mph - 0.02 in Rain Light Rain
5:30 PM 44.6 °F 38.1 °F 39.2 °F 81% 30.16 in 6.0 mi SSW 13.8 mph - 0.03 in Rain Light Rain
5:53 PM 43.0 °F 36.8 °F 37.9 °F 82% 30.17 in 10.0 mi SSW 11.5 mph - 0.04 in Rain Light Rain
7:46 PM 42.8 °F 36.6 °F 37.4 °F 81% 30.18 in 10.0 mi SSW 11.5 mph - N/A   Overcast
7:53 PM 43.0 °F 37.7 °F 37.9 °F 82% 30.18 in 10.0 mi SW 9.2 mph - N/A   Overcast
8:27 PM 42.8 °F 36.6 °F 37.4 °F 81% 30.17 in 10.0 mi SW 11.5 mph - 0.00 in   Overcast
8:53 PM 43.0 °F 36.0 °F 37.9 °F 82% 30.17 in 9.0 mi SSW 13.8 mph - 0.00 in Rain Light Rain
9:53 PM 43.0 °F 37.7 °F 39.0 °F 86% 30.19 in 10.0 mi SSW 9.2 mph - 0.00 in   Mostly Cloudy
11:19 PM 42.8 °F 39.3 °F 39.2 °F 87% 30.18 in 10.0 mi South 5.8 mph - N/A   Overcast
11:53 PM 43.0 °F 38.8 °F 39.0 °F 86% 30.19 in 10.0 mi SSW 6.9 mph - N/A   Overcast